"read_dt","SO2 (ppb)","flags","PMT voltage (V)","lamp voltage (V)","lamp intensity (Hz)","internal temp (C)","react chamber temp (C)","sample flow (l/min)","pres (mmHg)","SO2 bkg (ppb)","SO2 coefficient"
2015-05-20 00:00:00,1757E-3,5C000000,-0724,0829,12232,026.0,045.4,0.477,732.8,01.19,0.508
2015-05-20 00:01:00,1667E-3,5C000000,-0724,0829,12159,026.0,045.4,0.477,732.9,01.19,0.508
2015-05-20 00:02:00,1829E-3,5C000000,-0724,0829,12246,026.0,045.4,0.477,732.8,01.19,0.508
2015-05-20 00:03:00,1774E-3,5C000000,-0724,0829,12302,026.0,045.4,0.477,732.9,01.19,0.508
2015-05-20 00:04:00,1637E-3,5C000000,-0724,0829,12181,026.0,045.4,0.478,732.9,01.19,0.508
2015-05-20 00:05:00,1774E-3,5C000000,-0724,0830,12214,026.0,045.4,0.477,732.9,01.19,0.508
2015-05-20 00:06:00,1743E-3,5C000000,-0724,0830,12167,026.1,045.4,0.477,732.8,01.19,0.508
2015-05-20 00:07:00,1801E-3,5C000000,-0724,0831,12354,026.2,045.4,0.477,732.8,01.19,0.508
2015-05-20 00:08:00,1758E-3,5C000000,-0724,0830,12331,026.3,045.4,0.477,732.8,01.19,0.508
2015-05-20 00:09:00,1722E-3,5C000000,-0724,0829,12199,026.5,045.4,0.477,732.8,01.19,0.508
2015-05-20 00:10:00,1633E-3,5C000000,-0724,0831,12222,026.6,045.4,0.477,732.8,01.19,0.508
2015-05-20 00:11:00,1835E-3,5C000000,-0724,0830,12231,026.7,045.4,0.476,732.8,01.19,0.508
2015-05-20 00:12:00,1717E-3,5C000000,-0724,0830,12105,026.7,045.4,0.477,732.8,01.19,0.508
2015-05-20 00:13:00,1747E-3,5C000000,-0724,0831,12134,026.8,045.4,0.476,732.8,01.19,0.508
2015-05-20 00:14:00,1720E-3,5C000000,-0724,0830,12156,026.8,045.4,0.476,732.8,01.19,0.508
2015-05-20 00:15:00,1742E-3,5C000000,-0724,0830,12394,026.8,045.4,0.476,732.8,01.19,0.508
2015-05-20 00:16:00,1689E-3,5C000000,-0724,0830,12043,026.8,045.4,0.476,732.8,01.19,0.508
2015-05-20 00:17:00,1797E-3,5C000000,-0724,0830,12080,026.8,045.4,0.476,732.9,01.19,0.508
2015-05-20 00:18:00,1926E-3,5C000000,-0724,0830,11979,026.8,045.4,0.476,732.9,01.19,0.508
2015-05-20 00:19:00,1789E-3,5C000000,-0724,0830,12239,026.8,045.4,0.476,732.9,01.19,0.508
2015-05-20 00:20:00,1891E-3,5C000000,-0724,0830,12324,026.7,045.4,0.476,732.9,01.19,0.508
2015-05-20 00:21:00,1781E-3,5C000000,-0724,0830,12366,026.7,045.4,0.476,732.8,01.19,0.508
2015-05-20 00:22:00,1750E-3,5C000000,-0724,0830,12316,026.6,045.4,0.477,732.9,01.19,0.508
2015-05-20 00:23:00,1770E-3,5C000000,-0724,0830,12129,026.4,045.4,0.476,732.9,01.19,0.508
2015-05-20 00:24:00,1764E-3,5C000000,-0724,0831,12183,026.4,045.4,0.476,732.9,01.19,0.508
2015-05-20 00:25:00,1805E-3,5C000000,-0724,0831,12250,026.3,045.4,0.476,732.9,01.19,0.508
2015-05-20 00:26:00,1817E-3,5C000000,-0724,0830,12207,026.2,045.4,0.477,732.9,01.19,0.508
2015-05-20 00:27:00,1817E-3,5C000000,-0724,0830,12188,026.2,045.4,0.477,732.9,01.19,0.508
2015-05-20 00:28:00,1746E-3,5C000000,-0724,0831,12154,026.2,045.4,0.477,732.9,01.19,0.508
2015-05-20 00:29:00,1740E-3,5C000000,-0724,0830,12029,026.1,045.4,0.477,732.8,01.19,0.508
2015-05-20 00:30:00,1807E-3,5C000000,-0724,0830,12229,026.1,045.4,0.477,732.9,01.19,0.508
2015-05-20 00:31:00,1688E-3,5C000000,-0724,0830,12093,026.0,045.4,0.477,732.8,01.19,0.508
2015-05-20 00:32:00,1935E-3,5C000000,-0724,0830,12329,026.0,045.4,0.477,732.8,01.19,0.508
2015-05-20 00:33:00,1791E-3,5C000000,-0724,0831,12375,026.0,045.4,0.477,732.8,01.19,0.508
2015-05-20 00:34:00,1714E-3,5C000000,-0724,0831,12067,025.9,045.4,0.477,732.9,01.19,0.508
2015-05-20 00:35:00,1895E-3,5C000000,-0724,0830,12163,025.9,045.4,0.477,732.9,01.19,0.508
2015-05-20 00:36:00,1850E-3,5C000000,-0724,0830,12167,025.9,045.4,0.477,732.9,01.19,0.508
2015-05-20 00:37:00,1757E-3,5C000000,-0724,0831,12262,025.9,045.4,0.478,732.9,01.19,0.508
2015-05-20 00:38:00,1894E-3,5C000000,-0724,0830,12397,025.9,045.4,0.477,732.8,01.19,0.508
2015-05-20 00:39:00,1770E-3,5C000000,-0724,0830,12042,025.9,045.4,0.477,732.9,01.19,0.508
2015-05-20 00:40:00,1756E-3,5C000000,-0724,0830,12279,026.0,045.4,0.478,732.8,01.19,0.508
2015-05-20 00:41:00,1819E-3,5C000000,-0724,0830,12223,026.2,045.4,0.477,732.8,01.19,0.508
2015-05-20 00:42:00,1753E-3,5C000000,-0724,0829,12220,026.3,045.4,0.477,732.8,01.19,0.508
2015-05-20 00:43:00,1905E-3,5C000000,-0724,0829,12135,026.5,045.4,0.477,732.8,01.19,0.508
2015-05-20 00:44:00,1771E-3,5C000000,-0724,0830,12213,026.6,045.4,0.477,732.8,01.19,0.508
2015-05-20 00:45:00,1736E-3,5C000000,-0724,0830,12100,026.6,045.4,0.476,732.8,01.19,0.508
2015-05-20 00:46:00,1844E-3,5C000000,-0724,0831,12260,026.7,045.4,0.477,732.8,01.19,0.508
2015-05-20 00:47:00,1811E-3,5C000000,-0724,0830,12114,026.8,045.4,0.476,732.8,01.19,0.508
2015-05-20 00:48:00,1818E-3,5C000000,-0724,0829,12152,026.8,045.4,0.477,732.9,01.19,0.508
2015-05-20 00:49:00,1771E-3,5C000000,-0724,0831,12146,026.8,045.4,0.476,732.9,01.19,0.508
2015-05-20 00:50:00,1741E-3,5C000000,-0724,0830,12222,026.8,045.4,0.477,732.9,01.19,0.508
2015-05-20 00:51:00,1619E-3,5C000000,-0724,0831,12224,026.9,045.4,0.476,732.9,01.19,0.508
2015-05-20 00:52:00,1802E-3,5C000000,-0724,0831,12270,026.8,045.4,0.476,732.9,01.19,0.508
2015-05-20 00:53:00,1864E-3,5C000000,-0724,0832,12159,026.8,045.4,0.476,732.9,01.19,0.508
2015-05-20 00:54:00,1672E-3,5C000000,-0724,0831,12150,026.8,045.4,0.476,732.9,01.19,0.508
2015-05-20 00:55:00,1832E-3,5C000000,-0724,0830,12185,026.7,045.4,0.476,732.9,01.19,0.508
2015-05-20 00:56:00,1752E-3,5C000000,-0724,0831,12152,026.6,045.4,0.476,732.9,01.19,0.508
2015-05-20 00:57:00,1633E-3,5C000000,-0724,0831,12288,026.5,045.4,0.476,732.9,01.19,0.508
2015-05-20 00:58:00,1685E-3,5C000000,-0724,0829,12191,026.4,045.4,0.476,732.9,01.19,0.508
2015-05-20 00:59:00,1723E-3,5C000000,-0724,0830,12192,026.3,045.4,0.476,732.9,01.19,0.508
2015-05-20 01:00:00,1831E-3,5C000000,-0724,0830,12228,026.3,045.4,0.477,732.9,01.19,0.508
2015-05-20 01:01:00,1771E-3,5C000000,-0724,0830,12199,026.2,045.4,0.477,732.9,01.19,0.508
2015-05-20 01:02:00,1682E-3,5C000000,-0724,0830,12258,026.2,045.4,0.477,732.9,01.19,0.508
2015-05-20 01:03:00,1810E-3,5C000000,-0724,0830,12262,026.1,045.4,0.477,732.9,01.19,0.508
2015-05-20 01:04:00,1749E-3,5C000000,-0724,0830,12255,026.1,045.4,0.477,732.9,01.19,0.508
2015-05-20 01:05:00,1724E-3,5C000000,-0724,0831,12220,026.1,045.4,0.477,732.9,01.19,0.508
2015-05-20 01:06:00,1749E-3,5C000000,-0724,0831,12441,026.0,045.4,0.477,732.9,01.19,0.508
2015-05-20 01:07:00,1770E-3,5C000000,-0724,0830,12098,026.0,045.4,0.477,732.9,01.19,0.508
2015-05-20 01:08:00,1756E-3,5C000000,-0724,0829,12081,026.0,045.4,0.477,732.9,01.19,0.508
2015-05-20 01:09:00,1624E-3,5C000000,-0724,0830,12246,025.9,045.4,0.477,732.9,01.19,0.508
2015-05-20 01:10:00,1773E-3,5C000000,-0724,0830,12385,025.9,045.4,0.477,732.9,01.19,0.508
2015-05-20 01:11:00,1694E-3,5C000000,-0724,0831,12209,025.9,045.4,0.477,732.9,01.19,0.508
2015-05-20 01:12:00,1543E-3,5C000000,-0724,0830,12183,025.9,045.4,0.477,732.9,01.19,0.508
2015-05-20 01:13:00,1969E-3,5C000000,-0724,0830,12219,025.9,045.4,0.477,732.9,01.19,0.508
2015-05-20 01:14:00,1739E-3,5C000000,-0724,0831,12137,026.0,045.4,0.478,732.9,01.19,0.508
2015-05-20 01:15:00,1746E-3,5C000000,-0724,0831,12170,026.1,045.4,0.477,732.8,01.19,0.508
2015-05-20 01:16:00,1682E-3,5C000000,-0724,0830,12226,026.3,045.4,0.477,732.8,01.19,0.508
2015-05-20 01:17:00,1611E-3,5C000000,-0724,0830,12174,026.5,045.4,0.477,732.8,01.19,0.508
2015-05-20 01:18:00,1786E-3,5C000000,-0724,0831,12272,026.6,045.4,0.477,732.8,01.19,0.508
2015-05-20 01:19:00,1686E-3,5C000000,-0724,0831,12146,026.6,045.4,0.476,732.8,01.19,0.508
2015-05-20 01:20:00,1806E-3,5C000000,-0724,0830,12239,026.7,045.4,0.477,732.8,01.19,0.508
2015-05-20 01:21:00,1826E-3,5C000000,-0724,0830,12107,026.8,045.4,0.476,732.9,01.19,0.508
2015-05-20 01:22:00,1554E-3,5C000000,-0724,0830,12116,026.8,045.4,0.477,732.9,01.19,0.508
2015-05-20 01:23:00,1701E-3,5C000000,-0724,0830,12331,026.8,045.4,0.476,732.9,01.19,0.508
2015-05-20 01:24:00,1777E-3,5C000000,-0724,0831,12104,026.8,045.4,0.476,732.9,01.19,0.508
2015-05-20 01:25:00,1780E-3,5C000000,-0724,0831,12308,026.8,045.4,0.476,732.9,01.19,0.508
2015-05-20 01:26:00,1853E-3,5C000000,-0724,0831,12118,026.8,045.4,0.476,732.9,01.19,0.508
2015-05-20 01:27:00,1705E-3,5C000000,-0724,0830,12192,026.8,045.4,0.476,732.9,01.19,0.508
2015-05-20 01:28:00,1679E-3,5C000000,-0724,0831,12135,026.8,045.4,0.476,732.9,01.19,0.508
2015-05-20 01:29:00,1735E-3,5C000000,-0724,0831,12314,026.7,045.4,0.476,732.9,01.19,0.508
2015-05-20 01:30:00,1795E-3,5C000000,-0724,0831,12211,026.6,045.4,0.476,732.9,01.19,0.508
2015-05-20 01:31:00,1668E-3,5C000000,-0724,0831,12240,026.5,045.4,0.477,733.0,01.19,0.508
2015-05-20 01:32:00,1732E-3,5C000000,-0724,0831,12176,026.4,045.4,0.477,733.0,01.19,0.508
2015-05-20 01:33:00,1743E-3,5C000000,-0724,0830,12172,026.3,045.4,0.477,733.0,01.19,0.508
2015-05-20 01:34:00,1713E-3,5C000000,-0724,0831,12349,026.3,045.4,0.477,733.0,01.19,0.508
2015-05-20 01:35:00,1820E-3,5C000000,-0724,0831,12240,026.2,045.4,0.477,733.0,01.19,0.508
2015-05-20 01:36:00,1713E-3,5C000000,-0724,0832,11114,026.2,045.4,0.477,733.0,01.19,0.508
2015-05-20 01:37:00,1684E-3,5C000000,-0724,0834,12207,026.1,045.4,0.477,733.0,01.19,0.508
2015-05-20 01:38:00,1679E-3,5C000000,-0724,0831,11041,026.1,045.4,0.477,733.0,01.19,0.508
2015-05-20 01:39:00,1509E-3,5C000000,-0724,0830,12204,026.1,045.4,0.477,733.0,01.19,0.508
2015-05-20 01:40:00,1722E-3,5C000000,-0724,0831,12212,026.0,045.4,0.477,733.0,01.19,0.508
2015-05-20 01:41:00,1605E-3,5C000000,-0724,0830,12165,026.0,045.4,0.477,733.0,01.19,0.508
2015-05-20 01:42:00,1629E-3,5C000000,-0724,0831,12240,026.0,045.4,0.477,733.0,01.19,0.508
2015-05-20 01:43:00,1701E-3,5C000000,-0724,0830,12191,026.0,045.4,0.477,733.0,01.19,0.508
2015-05-20 01:44:00,1769E-3,5C000000,-0724,0831,11981,025.9,045.4,0.477,733.0,01.19,0.508
2015-05-20 01:45:00,1572E-3,5C000000,-0724,0831,12349,025.9,045.4,0.477,733.0,01.19,0.508
2015-05-20 01:46:00,1773E-3,5C000000,-0724,0831,12245,025.9,045.4,0.478,733.0,01.19,0.508
2015-05-20 01:47:00,1551E-3,5C000000,-0724,0831,12260,025.8,045.4,0.477,733.0,01.19,0.508
2015-05-20 01:48:00,1749E-3,5C000000,-0724,0831,12242,025.9,045.4,0.477,733.1,01.19,0.508
2015-05-20 01:49:00,1781E-3,5C000000,-0724,0831,12233,025.8,045.4,0.478,733.1,01.19,0.508
2015-05-20 01:50:00,1724E-3,5C000000,-0724,0831,12083,025.8,045.4,0.477,733.1,01.19,0.508
2015-05-20 01:51:00,1827E-3,5C000000,-0724,0830,12216,025.8,045.4,0.478,733.1,01.19,0.508
2015-05-20 01:52:00,1746E-3,5C000000,-0724,0830,12120,025.8,045.4,0.478,733.1,01.19,0.508
2015-05-20 01:53:00,1742E-3,5C000000,-0724,0831,12209,025.8,045.4,0.477,733.1,01.19,0.508
2015-05-20 01:54:00,1739E-3,5C000000,-0724,0829,12222,025.8,045.4,0.478,733.1,01.19,0.508
2015-05-20 01:55:00,1769E-3,5C000000,-0724,0829,12226,025.7,045.4,0.478,733.1,01.19,0.508
2015-05-20 01:56:00,1717E-3,5C000000,-0724,0830,12288,025.8,045.4,0.477,733.1,01.19,0.508
2015-05-20 01:57:00,1751E-3,5C000000,-0724,0830,12171,025.8,045.4,0.478,733.1,01.19,0.508
2015-05-20 01:58:00,1707E-3,5C000000,-0724,0831,12287,025.8,045.4,0.477,733.1,01.19,0.508
2015-05-20 01:59:00,1775E-3,5C000000,-0724,0830,12240,026.0,045.4,0.478,733.1,01.19,0.508
2015-05-20 02:00:00,1781E-3,5C000000,-0724,0831,12195,026.1,045.4,0.478,733.1,01.19,0.508
2015-05-20 02:01:00,1700E-3,5C000000,-0724,0830,12396,026.3,045.4,0.477,733.1,01.19,0.508
2015-05-20 02:02:00,1546E-3,5C000000,-0724,0830,12221,026.4,045.4,0.477,733.1,01.19,0.508
2015-05-20 02:03:00,1797E-3,5C000000,-0724,0831,12154,026.5,045.4,0.477,733.1,01.19,0.508
2015-05-20 02:04:00,1829E-3,5C000000,-0724,0830,12153,026.6,045.4,0.477,733.1,01.19,0.508
2015-05-20 02:05:00,1774E-3,5C000000,-0724,0831,12318,026.7,045.4,0.477,733.0,01.19,0.508
2015-05-20 02:06:00,1857E-3,5C000000,-0724,0831,12331,026.7,045.4,0.477,733.1,01.19,0.508
2015-05-20 02:07:00,1783E-3,5C000000,-0724,0830,12152,026.8,045.4,0.476,733.1,01.19,0.508
2015-05-20 02:08:00,1711E-3,5C000000,-0724,0831,12090,026.8,045.4,0.477,733.1,01.19,0.508
2015-05-20 02:09:00,1791E-3,5C000000,-0724,0832,12260,026.8,045.4,0.476,733.1,01.19,0.508
2015-05-20 02:10:00,1606E-3,5C000000,-0724,0831,12277,026.8,045.4,0.477,733.1,01.19,0.508
2015-05-20 02:11:00,1837E-3,5C000000,-0724,0830,12077,026.8,045.4,0.476,733.1,01.19,0.508
2015-05-20 02:12:00,1702E-3,5C000000,-0724,0830,12128,026.8,045.4,0.476,733.1,01.19,0.508
2015-05-20 02:13:00,1817E-3,5C000000,-0724,0829,12164,026.8,045.4,0.476,733.1,01.19,0.508
2015-05-20 02:14:00,1702E-3,5C000000,-0724,0830,12222,026.7,045.4,0.476,733.1,01.19,0.508
2015-05-20 02:15:00,1767E-3,5C000000,-0724,0830,12230,026.6,045.4,0.477,733.2,01.19,0.508
2015-05-20 02:16:00,1786E-3,5C000000,-0724,0830,12171,026.5,045.4,0.477,733.2,01.19,0.508
2015-05-20 02:17:00,1876E-3,5C000000,-0724,0830,12274,026.4,045.4,0.477,733.2,01.19,0.508
2015-05-20 02:18:00,1600E-3,5C000000,-0724,0830,12191,026.4,045.4,0.476,733.2,01.19,0.508
2015-05-20 02:19:00,1785E-3,5C000000,-0724,0831,12241,026.3,045.4,0.476,733.2,01.19,0.508
2015-05-20 02:20:00,1853E-3,5C000000,-0724,0830,12117,026.3,045.4,0.477,733.2,01.19,0.508
2015-05-20 02:21:00,1859E-3,5C000000,-0724,0830,12140,026.2,045.4,0.477,733.2,01.19,0.508
2015-05-20 02:22:00,1748E-3,5C000000,-0724,0830,12119,026.1,045.4,0.477,733.2,01.19,0.508
2015-05-20 02:23:00,1745E-3,5C000000,-0724,0829,12221,026.1,045.4,0.477,733.2,01.19,0.508
2015-05-20 02:24:00,1829E-3,5C000000,-0724,0830,12274,026.1,045.4,0.477,733.2,01.19,0.508
2015-05-20 02:25:00,1759E-3,5C000000,-0724,0830,12241,026.1,045.4,0.477,733.2,01.19,0.508
2015-05-20 02:26:00,1754E-3,5C000000,-0724,0830,12107,026.0,045.4,0.477,733.2,01.19,0.508
2015-05-20 02:27:00,1670E-3,5C000000,-0724,0831,12236,026.0,045.4,0.478,733.2,01.19,0.508
2015-05-20 02:28:00,1681E-3,5C000000,-0724,0830,12229,026.0,045.4,0.477,733.2,01.19,0.508
2015-05-20 02:29:00,1644E-3,5C000000,-0724,0831,12197,026.0,045.4,0.477,733.3,01.19,0.508
2015-05-20 02:30:00,1880E-3,5C000000,-0724,0830,12193,025.9,045.4,0.478,733.2,01.19,0.508
2015-05-20 02:31:00,1707E-3,5C000000,-0724,0831,12166,025.9,045.4,0.477,733.3,01.19,0.508
2015-05-20 02:32:00,1743E-3,5C000000,-0724,0831,12383,025.9,045.4,0.478,733.3,01.19,0.508
2015-05-20 02:33:00,1940E-3,5C000000,-0724,0830,12077,025.9,045.4,0.478,733.3,01.19,0.508
2015-05-20 02:34:00,1857E-3,5C000000,-0724,0830,12181,025.8,045.4,0.477,733.3,01.19,0.508
2015-05-20 02:35:00,1783E-3,5C000000,-0724,0831,12123,025.8,045.4,0.478,733.3,01.19,0.508
2015-05-20 02:36:00,1728E-3,5C000000,-0724,0831,12231,025.8,045.4,0.478,733.3,01.19,0.508
2015-05-20 02:37:00,1739E-3,5C000000,-0724,0830,12272,025.8,045.4,0.477,733.3,01.19,0.508
2015-05-20 02:38:00,1772E-3,5C000000,-0724,0830,12054,025.8,045.4,0.478,733.3,01.19,0.508
2015-05-20 02:39:00,1664E-3,5C000000,-0724,0831,12160,025.8,045.4,0.477,733.3,01.19,0.508
2015-05-20 02:40:00,1847E-3,5C000000,-0724,0830,12194,025.9,045.4,0.478,733.3,01.19,0.508
2015-05-20 02:41:00,1718E-3,5C000000,-0724,0831,12460,026.0,045.4,0.478,733.3,01.19,0.508
2015-05-20 02:42:00,1651E-3,5C000000,-0724,0831,12165,026.2,045.4,0.477,733.3,01.19,0.508
2015-05-20 02:43:00,1823E-3,5C000000,-0724,0830,12088,026.3,045.4,0.478,733.3,01.19,0.508
2015-05-20 02:44:00,1730E-3,5C000000,-0724,0830,12210,026.5,045.4,0.477,733.3,01.19,0.508
2015-05-20 02:45:00,1770E-3,5C000000,-0724,0830,12270,026.6,045.4,0.477,733.3,01.19,0.508
2015-05-20 02:46:00,1724E-3,5C000000,-0724,0831,12258,026.6,045.4,0.477,733.3,01.19,0.508
2015-05-20 02:47:00,1648E-3,5C000000,-0724,0831,12215,026.7,045.4,0.477,733.3,01.19,0.508
2015-05-20 02:48:00,1789E-3,5C000000,-0724,0830,12260,026.7,045.4,0.476,733.3,01.19,0.508
2015-05-20 02:49:00,1866E-3,5C000000,-0724,0830,12125,026.7,045.4,0.477,733.3,01.19,0.508
2015-05-20 02:50:00,1794E-3,5C000000,-0724,0831,12263,026.8,045.4,0.476,733.3,01.19,0.508
2015-05-20 02:51:00,1765E-3,5C000000,-0724,0832,10954,026.8,045.4,0.477,733.3,01.19,0.508
2015-05-20 02:52:00,1890E-3,5C000000,-0724,0834,12302,026.8,045.4,0.476,733.3,01.19,0.508
2015-05-20 02:53:00,1653E-3,5C000000,-0724,0830,12134,026.8,045.4,0.477,733.3,01.19,0.508
2015-05-20 02:54:00,1707E-3,5C000000,-0724,0831,12150,026.8,045.4,0.476,733.3,01.19,0.508
2015-05-20 02:55:00,1796E-3,5C000000,-0724,0831,12204,026.7,045.4,0.476,733.3,01.19,0.508
2015-05-20 02:56:00,1748E-3,5C000000,-0724,0831,12321,026.6,045.4,0.477,733.3,01.19,0.508
2015-05-20 02:57:00,1752E-3,5C000000,-0724,0830,12199,026.5,045.4,0.477,733.3,01.19,0.508
2015-05-20 02:58:00,1667E-3,5C000000,-0724,0831,12262,026.4,045.4,0.477,733.3,01.19,0.508
2015-05-20 02:59:00,1652E-3,5C000000,-0724,0831,12134,026.3,045.4,0.477,733.3,01.19,0.508
2015-05-20 03:00:00,1664E-3,5C000000,-0724,0830,12324,026.3,045.4,0.477,733.3,01.19,0.508
2015-05-20 03:01:00,1750E-3,5C000000,-0724,0830,12361,026.2,045.4,0.477,733.3,01.19,0.508
2015-05-20 03:02:00,1834E-3,5C000000,-0724,0831,12234,026.2,045.4,0.477,733.3,01.19,0.508
2015-05-20 03:03:00,1764E-3,5C000000,-0724,0831,12267,026.1,045.4,0.477,733.4,01.19,0.508
2015-05-20 03:04:00,1649E-3,5C000000,-0724,0831,12155,026.1,045.4,0.478,733.3,01.19,0.508
2015-05-20 03:05:00,1659E-3,5C000000,-0724,0830,12322,026.1,045.4,0.477,733.3,01.19,0.508
2015-05-20 03:06:00,1728E-3,5C000000,-0724,0833,12252,026.0,045.4,0.477,733.3,01.19,0.508
2015-05-20 03:07:00,1718E-3,5C000000,-0724,0831,12189,026.0,045.4,0.477,733.3,01.19,0.508
2015-05-20 03:08:00,1815E-3,5C000000,-0724,0832,11008,026.0,045.4,0.478,733.3,01.19,0.508
2015-05-20 03:09:00,1710E-3,5C000000,-0724,0833,12285,026.0,045.4,0.477,733.3,01.19,0.508
2015-05-20 03:10:00,1710E-3,5C000000,-0724,0831,12159,025.9,045.4,0.477,733.4,01.19,0.508
2015-05-20 03:11:00,1786E-3,5C000000,-0724,0830,12064,025.9,045.4,0.478,733.3,01.19,0.508
2015-05-20 03:12:00,1723E-3,5C000000,-0724,0831,12074,025.9,045.4,0.477,733.3,01.19,0.508
2015-05-20 03:13:00,1696E-3,5C000000,-0724,0831,12069,025.9,045.4,0.478,733.3,01.19,0.508
2015-05-20 03:14:00,1680E-3,5C000000,-0724,0831,12282,025.8,045.4,0.478,733.3,01.19,0.508
2015-05-20 03:15:00,1767E-3,5C000000,-0724,0831,12218,025.8,045.4,0.477,733.3,01.19,0.508
2015-05-20 03:16:00,1533E-3,5C000000,-0724,0830,12161,025.8,045.4,0.478,733.4,01.19,0.508
2015-05-20 03:17:00,1548E-3,5C000000,-0724,0830,12143,025.8,045.4,0.478,733.3,01.19,0.508
2015-05-20 03:18:00,1868E-3,5C000000,-0724,0831,11134,025.8,045.4,0.477,733.4,01.19,0.508
2015-05-20 03:19:00,1705E-3,5C000000,-0724,0833,12359,025.8,045.4,0.478,733.4,01.19,0.508
2015-05-20 03:20:00,1617E-3,5C000000,-0724,0831,11030,025.8,045.4,0.478,733.4,01.19,0.508
2015-05-20 03:21:00,1864E-3,5C000000,-0724,0830,12080,025.7,045.4,0.478,733.4,01.19,0.508
2015-05-20 03:22:00,1976E-3,5C000000,-0724,0830,12264,025.7,045.4,0.478,733.4,01.19,0.508
2015-05-20 03:23:00,1712E-3,5C000000,-0724,0831,12354,025.7,045.4,0.478,733.4,01.19,0.508
2015-05-20 03:24:00,1764E-3,5C000000,-0724,0831,12204,025.7,045.4,0.477,733.4,01.19,0.508
2015-05-20 03:25:00,1661E-3,5C000000,-0724,0830,12215,025.7,045.4,0.478,733.4,01.19,0.508
2015-05-20 03:26:00,1759E-3,5C000000,-0724,0830,12177,025.7,045.4,0.478,733.4,01.19,0.508
2015-05-20 03:27:00,1742E-3,5C000000,-0724,0830,12251,025.7,045.4,0.478,733.4,01.19,0.508
2015-05-20 03:28:00,1712E-3,5C000000,-0724,0830,12287,025.7,045.4,0.478,733.4,01.19,0.508
2015-05-20 03:29:00,1733E-3,5C000000,-0724,0830,12131,025.7,045.4,0.478,733.5,01.19,0.508
2015-05-20 03:30:00,1728E-3,5C000000,-0724,0829,12122,025.7,045.4,0.478,733.4,01.19,0.508
2015-05-20 03:31:00,1769E-3,5C000000,-0724,0830,10959,025.7,045.4,0.478,733.5,01.19,0.508
2015-05-20 03:32:00,1851E-3,5C000000,-0724,0831,12222,025.7,045.4,0.478,733.4,01.19,0.508
2015-05-20 03:33:00,1822E-3,5C000000,-0724,0832,12138,025.7,045.4,0.478,733.5,01.19,0.508
2015-05-20 03:34:00,1776E-3,5C000000,-0724,0831,12386,025.7,045.4,0.478,733.4,01.19,0.508
2015-05-20 03:35:00,1719E-3,5C000000,-0724,0832,12355,025.6,045.4,0.478,733.5,01.19,0.508
2015-05-20 03:36:00,1832E-3,5C000000,-0724,0831,12134,025.7,045.4,0.478,733.5,01.19,0.508
2015-05-20 03:37:00,1662E-3,5C000000,-0724,0831,12263,025.6,045.4,0.478,733.5,01.19,0.508
2015-05-20 03:38:00,1769E-3,5C000000,-0724,0830,12153,025.6,045.4,0.478,733.4,01.19,0.508
2015-05-20 03:39:00,1851E-3,5C000000,-0724,0831,12156,025.6,045.4,0.478,733.5,01.19,0.508
2015-05-20 03:40:00,1719E-3,5C000000,-0724,0831,12251,025.6,045.4,0.478,733.5,01.19,0.508
2015-05-20 03:41:00,1797E-3,5C000000,-0724,0830,10957,025.6,045.4,0.478,733.4,01.19,0.508
2015-05-20 03:42:00,1809E-3,5C000000,-0724,0831,12189,025.6,045.4,0.478,733.5,01.19,0.508
2015-05-20 03:43:00,1652E-3,5C000000,-0724,0830,12282,025.6,045.4,0.478,733.5,01.19,0.508
2015-05-20 03:44:00,1808E-3,5C000000,-0724,0830,12250,025.6,045.4,0.478,733.5,01.19,0.508
2015-05-20 03:45:00,1778E-3,5C000000,-0724,0830,12108,025.7,045.4,0.478,733.5,01.19,0.508
2015-05-20 03:46:00,1817E-3,5C000000,-0724,0831,12226,025.6,045.4,0.478,733.5,01.19,0.508
2015-05-20 03:47:00,1716E-3,5C000000,-0724,0831,12195,025.6,045.4,0.478,733.5,01.19,0.508
2015-05-20 03:48:00,1739E-3,5C000000,-0724,0831,12328,025.6,045.4,0.478,733.5,01.19,0.508
2015-05-20 03:49:00,1758E-3,5C000000,-0724,0831,12160,025.6,045.4,0.478,733.5,01.19,0.508
2015-05-20 03:50:00,1720E-3,5C000000,-0724,0830,12127,025.6,045.4,0.478,733.5,01.19,0.508
2015-05-20 03:51:00,1717E-3,5C000000,-0724,0830,12137,025.6,045.4,0.478,733.5,01.19,0.508
2015-05-20 03:52:00,1724E-3,5C000000,-0724,0830,12159,025.6,045.4,0.478,733.5,01.19,0.508
2015-05-20 03:53:00,1653E-3,5C000000,-0724,0831,12388,025.6,045.4,0.478,733.5,01.19,0.508
2015-05-20 03:54:00,1720E-3,5C000000,-0724,0831,12341,025.6,045.4,0.478,733.5,01.19,0.508
2015-05-20 03:55:00,1729E-3,5C000000,-0724,0830,12048,025.6,045.4,0.478,733.5,01.19,0.508
2015-05-20 03:56:00,1883E-3,5C000000,-0724,0831,12206,025.6,045.4,0.478,733.5,01.19,0.508
2015-05-20 03:57:00,1799E-3,5C000000,-0724,0830,12124,025.6,045.4,0.478,733.5,01.19,0.508
2015-05-20 03:58:00,1782E-3,5C000000,-0724,0831,12245,025.6,045.4,0.478,733.5,01.19,0.508
2015-05-20 03:59:00,1824E-3,5C000000,-0724,0831,12080,025.6,045.4,0.478,733.5,01.19,0.508
2015-05-20 04:00:00,1879E-3,5C000000,-0724,0830,12278,025.6,045.4,0.478,733.5,01.19,0.508
2015-05-20 04:01:00,1760E-3,5C000000,-0724,0830,12316,025.6,045.4,0.478,733.5,01.19,0.508
2015-05-20 04:02:00,1695E-3,5C000000,-0724,0830,12191,025.6,045.4,0.478,733.5,01.19,0.508
2015-05-20 04:03:00,1845E-3,5C000000,-0724,0830,12109,025.6,045.4,0.478,733.5,01.19,0.508
2015-05-20 04:04:00,1755E-3,5C000000,-0724,0830,12212,025.6,045.4,0.478,733.5,01.19,0.508
2015-05-20 04:05:00,1790E-3,5C000000,-0724,0830,12212,025.6,045.4,0.477,733.5,01.19,0.508
2015-05-20 04:06:00,1743E-3,5C000000,-0724,0831,12252,025.6,045.4,0.478,733.5,01.19,0.508
2015-05-20 04:07:00,1813E-3,5C000000,-0724,0829,12189,025.6,045.4,0.478,733.5,01.19,0.508
2015-05-20 04:08:00,1830E-3,5C000000,-0724,0831,12111,025.6,045.4,0.478,733.5,01.19,0.508
2015-05-20 04:09:00,1566E-3,5C000000,-0724,0831,12233,025.6,045.4,0.478,733.5,01.19,0.508
2015-05-20 04:10:00,1811E-3,5C000000,-0724,0831,12239,025.6,045.4,0.478,733.5,01.19,0.508
2015-05-20 04:11:00,1740E-3,5C000000,-0724,0830,12220,025.6,045.4,0.478,733.5,01.19,0.508
2015-05-20 04:12:00,1596E-3,5C000000,-0724,0830,12150,025.6,045.4,0.478,733.5,01.19,0.508
2015-05-20 04:13:00,1731E-3,5C000000,-0724,0830,12104,025.6,045.4,0.478,733.5,01.19,0.508
2015-05-20 04:14:00,1785E-3,5C000000,-0724,0830,12308,025.6,045.4,0.478,733.5,01.19,0.508
2015-05-20 04:15:00,1781E-3,5C000000,-0724,0830,12159,025.6,045.4,0.478,733.5,01.19,0.508
2015-05-20 04:16:00,1724E-3,5C000000,-0724,0830,12284,025.6,045.4,0.478,733.5,01.19,0.508
2015-05-20 04:17:00,1853E-3,5C000000,-0724,0830,12187,025.6,045.4,0.478,733.5,01.19,0.508
2015-05-20 04:18:00,1668E-3,5C000000,-0724,0830,12234,025.6,045.4,0.478,733.5,01.19,0.508
2015-05-20 04:19:00,1681E-3,5C000000,-0724,0830,12125,025.6,045.4,0.478,733.5,01.19,0.508
2015-05-20 04:20:00,1862E-3,5C000000,-0724,0830,12222,025.6,045.4,0.478,733.5,01.19,0.508